Regional Weather Roundup
Issued by NWS Newport/Morehead, NC

Current Version | Previous Version | Graphics & Text | Print | Product List | Glossary On
Versions: 1 2 3 4 5 6 7 8 9 10 11 12 13 14 15 16 17 18 19 20 21 22 23 24 25 26 27 28 29 30 31 32 33 34 35 36 37 38 39 40 41 42 43 44 45 46 47 48 49 50
000 ASUS42 KMHX 170210 RWRMHX WEATHER ROUNDUP FOR EASTERN NORTH CAROLINA NATIONAL WEATHER SERVICE NEWPORT/MOREHEAD CITY NC 1000 PM EDT TUE SEP 16 2014 NOTE: "FAIR" INDICATES FEW OR NO CLOUDS BELOW 12,000 FEET WITH NO SIGNIFICANT WEATHER AND/OR OBSTRUCTIONS TO VISIBILITY NCZ015>017-031-032-045>047-102-103-170300- NORTH COAST CITY SKY/WX TMP DP RH WIND PRES REMARKS EDENTON CLEAR 68 64 88 E3 29.97S ELIZABETH CITY CLEAR 70 65 84 E7 29.98R KITTY HAWK CLEAR 72 63 72 E7 29.97R MANTEO CLEAR 72 62 70 NE8 29.98R $$ NCZ045>047-081-094-103-104-170300- CENTRAL COAST CITY SKY/WX TMP DP RH WIND PRES REMARKS FRISCO RAIN 71 71 100 NE7 29.98R FOG SWANQUARTER N/A 73 N/A N/A E7 29.91S $$ NCZ095-097-098-100-101-170300- SOUTHERN COAST CITY SKY/WX TMP DP RH WIND PRES REMARKS BEAUFORT PTCLDY 77 71 82 S3 29.95F CEDAR ISLAND N/A 73 N/A N/A S2 30.00S JACKSONVILLE PTCLDY 73 71 93 CALM 29.95S NEWPORT NOT AVBL PINEY ISLAND PTCLDY 75 71 87 S5 29.95F WILMINGTON PTCLDY 74 71 91 S3 29.95F $$ NCZ011>013-027>030-043-044-078>080-089-090>093-098-170300- COASTAL PLAIN CITY SKY/WX TMP DP RH WIND PRES REMARKS AHOSKIE MOCLDY 67 65 94 CALM 29.98R CLINTON MOCLDY 71 70 97 CALM 29.97R ELIZABETHTOWN PTCLDY 74 72 93 SE3 29.95F GOLDSBORO CLOUDY 74 72 93 CALM 29.94S GREENVILLE MOCLDY 70 70 100 CALM 29.98S HAVELOCK PTCLDY 73 70 90 CALM 29.97R KENANSVILLE MOCLDY 70 69 96 CALM 29.98R KINSTON MOCLDY 72 70 94 CALM 29.97S NEW BERN MOCLDY 74 70 87 CALM 29.97R RICHLANDS MOCLDY 72 66 83 CALM 29.96S ROANOKE RAPIDS NOT AVBL ROCKY MOUNT CLOUDY 69 67 93 CALM 29.98R WASHINGTON PTCLDY 70 67 92 CALM 29.97S WHITEVILLE CLEAR 75 72 90 CALM 29.95F $$ AMZ130-135-150-152-154-156-158-170-250-252-270-ANZ085-086-088-633-658-670-170300- MARINE OBSERVATIONS STATION/POSITION TIME TEMP WIND PRES WAVE SWELL AIR SEA DIR/SP/G HT/PER HT/PER (UTC) (F) (DEG/KT/KT) (MB) (FT/S) (FT/S) CHESAPEAKE LIGHT 0100 74 30/ 12/ 13 1015.7 BUOY 44014 0200 75 79 40/ 10/ 14 1014.7 3/13 2/13 DUCK 0200 74 77 70/ 12/ 14 1014.5 2E DUCK 0200 N/A 2/13 2/13 OREGON INLET 0200 74 76 60/ 8/ 11 1014.9 BUOY 44095 0200 77 N/A 2/13 2/13 20E OREGON INLET NOT AVBL HATTERAS CG 0200 74 80 20/ 10/ 17 1015.4 DIAMOND BUOY 0200 77 280/ 2/ 6 1014.6 2/12 2/12 CAPE LOOKOUT 0100 78 200/ 5/ 6 1014.5 BEAUFORT LAB 0200 78 80 220/ 3/ 5 1013.9 30 SE NEW RIVER 0200 79 82 180/ 8/ 10 1014.6 2/13 2/13 5 SE WRIGHTSVILL 0100 76 82 170/ 10/ 10 N/A BUOY 41002 0051 78 82 140/ 10/ 12 1015.0 4/14 3/14 BUOY 41004 0200 79 83 20/ 4/ 6 1014.3 1/12 2/12 $$

USA.gov is the U.S. government's official web portal to all federal, state and local government web resources and services.